Location: Presov
(49.0000°N, 21.2500°E)
Time: 17:02:53
(UTC+02:00)

Envisat - Visible Passes

Search period start: 08 June 2023 00:00
Search period end: 18 June 2023 00:00
Orbit: 763 x 765 km, 98.2° (Epoch: 08 June)

Date Brightness Start Highest point End Pass type
(mag) Time Alt. Az. Time Alt. Az. Time Alt. Az.
08 Jun 5.6 03:03:16 10° ENE 03:05:42 13° E 03:08:08 10° ESE visible
10 Jun 5.2 03:26:50 10° NE 03:30:44 22° E 03:34:37 10° SE visible
11 Jun 5.9 02:52:30 10° ENE 02:53:04 10° E 02:53:39 10° E visible
13 Jun 5.5 03:14:49 10° NE 03:18:09 17° E 03:21:28 10° SE visible
15 Jun 4.9 03:38:48 10° NE 03:43:08 28° E 03:47:27 10° SSE visible
16 Jun 5.6 03:03:02 10° ENE 03:05:32 14° E 03:08:01 10° ESE visible
